Weather History for Phoenix-Mesa Gateway Airport, AZ

Change the Weather History Date:

Thursday, August 29, 2013

  Actual Average Record
Temperature  
Mean Temperature 86 °F -  
Max Temperature 93 °F 99 °F 111 °F (2011)
Min Temperature 78 °F 77 °F 73 °F (2006)
Cooling Degree Days 20    
Growing Degree Days 36 (Base 50)    
Moisture  
Dew Point 65 °F    
Average Humidity 54    
Maximum Humidity 65    
Minimum Humidity 36    
Precipitation  
Precipitation 0.00 in - - ()
Sea Level Pressure  
Sea Level Pressure 30.02 in    
Wind  
Wind Speed 6 mph (SW)    
Max Wind Speed 14 mph    
Max Gust Speed 20 mph    
Visibility 12 miles    
Events Thunderstorm    
Averages and records for this station are not official NWS values.
T = Trace of Precipitation, MM = Missing Value Source: NWS Daily Summary

Daily Weather History Graph

Daily Weather History Graph

Search for Another Location

Airport:

Trip Planner

Search our weather history database for the weather conditions in past years. The results will help you decide how hot, cold, wet, or windy it might be!

Date:

Astronomy

Aug. 29, 2013 Rise Set
Actual Time 5:59 AM MST 6:55 PM MST
Civil Twilight 5:33 AM MST 7:20 PM MST
Nautical Twilight 5:03 AM MST 7:50 PM MST
Astronomical Twilight 4:32 AM MST 8:21 PM MST
Moon 12:02 AM MST (8/29) 2:17 PM MST (8/29)
Length of Visible Light 13h 47m
Length of Day
12h 56m
Last Quarter, 37% of the Moon is Illuminated
Aug 29
Last Quarter
Sep 5
New
Sep 12
First Quarter
Sep 19
Full
Sep 26
Last Quarter

Hourly Weather History & Observations

Time (MST) Temp. Heat Index Dew Point Humidity Pressure Visibility Wind Dir Wind Speed Gust Speed Precip Events Conditions
12:15 AM 84.2 °F 85.6 °F 64.4 °F 51% 29.99 in 10.0 mi WNW 10.4 mph - N/A   Clear
12:35 AM 82.4 °F 83.4 °F 62.6 °F 51% 29.99 in 10.0 mi WNW 8.1 mph - N/A   Clear
12:55 AM 82.4 °F 83.9 °F 64.4 °F 54% 29.98 in 10.0 mi WNW 4.6 mph - N/A   Clear
1:15 AM 82.4 °F 83.9 °F 64.4 °F 54% 29.99 in 10.0 mi Calm Calm - N/A   Clear
1:35 AM 80.6 °F 82.3 °F 64.4 °F 58% 29.98 in 10.0 mi Calm Calm - N/A   Clear
1:55 AM 82.4 °F 83.9 °F 64.4 °F 54% 29.98 in 10.0 mi Calm Calm - N/A   Clear
2:15 AM 80.6 °F 82.3 °F 64.4 °F 58% 29.98 in 10.0 mi SE 4.6 mph - N/A   Clear
2:35 AM 80.6 °F 82.3 °F 64.4 °F 58% 29.98 in 10.0 mi SE 4.6 mph - N/A   Clear
2:55 AM 80.6 °F 82.7 °F 66.2 °F 61% 29.98 in 10.0 mi SE 5.8 mph - N/A   Clear
3:15 AM 78.8 °F - 64.4 °F 61% 29.98 in 10.0 mi SE 5.8 mph - N/A   Clear
3:35 AM 78.8 °F - 64.4 °F 61% 29.98 in 10.0 mi SE 8.1 mph - N/A   Clear
3:55 AM 78.8 °F - 64.4 °F 61% 29.98 in 10.0 mi SE 9.2 mph - N/A   Clear
4:15 AM 78.8 °F - 64.4 °F 61% 29.98 in 10.0 mi SE 8.1 mph - N/A   Clear
4:35 AM 78.8 °F - 66.2 °F 65% 29.99 in 10.0 mi SE 6.9 mph - N/A   Clear
4:47 AM 78.8 °F - 66.2 °F 65% 29.99 in 20.0 mi SE 4.6 mph - N/A   Mostly Cloudy
4:55 AM 78.8 °F - 64.4 °F 61% 29.99 in 10.0 mi SE 5.8 mph - N/A   Clear
5:15 AM 78.8 °F - 64.4 °F 61% 30.00 in 10.0 mi SSE 4.6 mph - N/A   Clear
5:35 AM 78.8 °F - 64.4 °F 61% 30.00 in 10.0 mi SE 5.8 mph - N/A   Clear
5:50 AM 78.8 °F - 66.2 °F 65% 30.00 in 20.0 mi ESE 4.6 mph - N/A   Mostly Cloudy
6:50 AM 80.6 °F 82.7 °F 66.2 °F 61% 30.02 in 35.0 mi SE 4.6 mph - N/A   Mostly Cloudy
7:47 AM 84.2 °F 87.3 °F 68.0 °F 58% 30.05 in 35.0 mi Calm Calm - N/A   Mostly Cloudy
8:47 AM 84.2 °F 86.6 °F 66.2 °F 55% 30.06 in 35.0 mi ESE 3.5 mph - N/A   Mostly Cloudy
9:50 AM 87.8 °F 89.4 °F 64.4 °F 46% 30.07 in 35.0 mi SW 4.6 mph - N/A   Mostly Cloudy
10:47 AM 89.6 °F 91.1 °F 64.4 °F 43% 30.07 in 35.0 mi WSW 9.2 mph - N/A   Mostly Cloudy
11:47 AM 91.4 °F 94.0 °F 66.2 °F 43% 30.06 in 35.0 mi WSW 13.8 mph - N/A   Mostly Cloudy
12:47 PM 91.4 °F 94.0 °F 66.2 °F 43% 30.04 in 35.0 mi SW 8.1 mph - N/A   Mostly Cloudy
1:47 PM 93.2 °F 96.2 °F 66.2 °F 41% 30.01 in 35.0 mi Variable 5.8 mph - N/A   Mostly Cloudy
2:47 PM 93.2 °F 94.9 °F 64.4 °F 38% 29.99 in 35.0 mi Variable 6.9 mph - N/A   Mostly Cloudy
4:47 PM 93.2 °F 94.1 °F 62.6 °F 36% 29.98 in 35.0 mi SSE 9.2 mph - N/A   Mostly Cloudy
4:52 PM 93.2 °F 94.1 °F 62.6 °F 36% 29.97 in 35.0 mi Variable 6.9 mph - N/A   Mostly Cloudy
5:47 PM 93.2 °F 94.9 °F 64.4 °F 38% 29.99 in 30.0 mi SW 11.5 mph - N/A   Mostly Cloudy
6:47 PM 87.8 °F 90.4 °F 66.2 °F 49% 30.00 in 20.0 mi WSW 11.5 mph 19.6 mph N/A   Mostly Cloudy
7:47 PM 84.2 °F 86.6 °F 66.2 °F 55% 30.04 in 20.0 mi WSW 11.5 mph - N/A   Mostly Cloudy
7:55 PM 84.2 °F 86.6 °F 66.2 °F 55% 30.04 in 10.0 mi SW 9.2 mph - N/A   Clear
8:15 PM 84.2 °F 86.6 °F 66.2 °F 55% 30.05 in 10.0 mi WSW 8.1 mph - N/A Thunderstorm Thunderstorm
8:35 PM 84.2 °F 86.6 °F 66.2 °F 55% 30.05 in 10.0 mi SW 9.2 mph - N/A   Clear
8:47 PM 84.2 °F 86.6 °F 66.2 °F 55% 30.05 in 20.0 mi WSW 6.9 mph - N/A   Mostly Cloudy
8:55 PM 84.2 °F 86.6 °F 66.2 °F 55% 30.05 in 10.0 mi WSW 5.8 mph - N/A   Clear
9:15 PM 84.2 °F 86.6 °F 66.2 °F 55% 30.06 in 10.0 mi WSW 5.8 mph - N/A   Clear
9:35 PM 84.2 °F 86.6 °F 66.2 °F 55% 30.07 in 10.0 mi West 4.6 mph - N/A   Clear
9:47 PM 84.2 °F 86.6 °F 66.2 °F 55% 30.07 in 20.0 mi West 5.8 mph - N/A   Mostly Cloudy
9:55 PM 84.2 °F 85.6 °F 64.4 °F 51% 30.07 in 10.0 mi WNW 4.6 mph - N/A   Clear
10:15 PM 84.2 °F 86.6 °F 66.2 °F 55% 30.07 in 10.0 mi NNW 8.1 mph - N/A   Clear
10:35 PM 84.2 °F 87.3 °F 68.0 °F 58% 30.08 in 10.0 mi NNW 5.8 mph - N/A Thunderstorm Thunderstorm
10:47 PM 84.2 °F 87.3 °F 68.0 °F 58% 30.07 in 20.0 mi NNW 4.6 mph - N/A   Mostly Cloudy
10:55 PM 82.4 °F 85.4 °F 68.0 °F 62% 30.07 in 10.0 mi NNW 5.8 mph - N/A   Clear
11:15 PM 82.4 °F 84.6 °F 66.2 °F 58% 30.07 in 10.0 mi NNW 5.8 mph - N/A   Clear
11:35 PM 82.4 °F 84.6 °F 66.2 °F 58% 30.07 in 10.0 mi NNW 5.8 mph - N/A   Clear
11:47 PM 84.2 °F 86.6 °F 66.2 °F 55% 30.07 in 20.0 mi NNW 5.8 mph - N/A   Mostly Cloudy
11:55 PM 82.4 °F 83.9 °F 64.4 °F 54% 30.07 in 10.0 mi NNW 8.1 mph - N/A   Clear